Flag for U.S.A. Weather past 2 weeks in El Paso, Texas, U.S.A.

Now
82 °F

Broken clouds.


Feels Like: 83 °F
Forecast: 70 / 80 °F
Wind: 13 mph from East

Location: El Paso International Airport

Current Time: Sep 21, 2014 at 7:20:35 PM

Latest Report: Sep 21, 2014 at 6:51 PM


Visibility: 10 mi

Pressure: 29.87 "Hg

Humidity: 53%

Dew point: 63 °F

Location of El PasoLocation

Historic Weather in El Paso — Graph

°F

El Paso temperature yesterday

Maximum temperature yesterday: 87 °F (at 2:51 PM)
Minimum temperature yesterday: 67 °F (at 5:51 AM)
Average temperature yesterday: 78 °F

Past Weeks' High & Low Weather Summary

 TemperatureHumidityPressure
High91 °F (Sep 10, 3:51 PM)97% (Sep 17, 8:51 PM)30.20 "Hg (Sep 17, 8:51 PM)
Low56 °F (Sep 13, 6:51 AM)22% (Sep 10, 4:51 PM)29.70 "Hg (Sep 10, 4:51 PM)
Average73 °F64%29.89 "Hg
* Reported Sep 6 5:51 PM — Sep 21 5:51 PM, El Paso, Weather by CustomWeather, © 2014

Note: Actual official high and low records may vary slightly from our data, if they occured in-between our weather recording intervals... More about our weather records

Advertising

El Paso weather history for previous 24 hours

 ConditionsComfort  
Time TempWeatherWind HumidityBarometerVisibility
5:51 PM
Sep 21
84 °FBroken clouds.7 mph43%29.85 "Hg10 mi
4:51 PM84 °FBroken clouds.10 mph48%29.85 "Hg10 mi
3:51 PM86 °FBroken clouds.15 mph43%29.84 "Hg10 mi
2:51 PM87 °FBroken clouds.7 mph42%29.85 "Hg10 mi
1:51 PM85 °FPartly sunny.7 mph46%29.88 "Hg10 mi
12:51 PM84 °FPartly sunny.No wind48%29.91 "Hg10 mi
11:51 AM81 °FBroken clouds.7 mph56%29.94 "Hg10 mi
10:51 AM80 °FBroken clouds.6 mph58%29.96 "Hg10 mi
9:51 AM76 °FPartly sunny.No wind67%29.96 "Hg10 mi
8:51 AM74 °FPartly sunny.6 mph71%29.95 "Hg10 mi
7:51 AM71 °FPartly cloudy.6 mph78%29.94 "Hg10 mi
6:51 AM70 °FPassing clouds.7 mph81%29.93 "Hg10 mi
5:51 AM71 °FPassing clouds.5 mph81%29.89 "Hg10 mi
4:51 AM72 °FPassing clouds.No wind78%29.87 "Hg10 mi
3:51 AM73 °FPassing clouds.5 mph76%29.87 "Hg10 mi
2:51 AM73 °FPassing clouds.No wind76%29.88 "Hg10 mi
1:51 AM74 °FPassing clouds.No wind74%29.88 "Hg10 mi
12:51 AM74 °FPassing clouds.No wind71%29.88 "Hg10 mi
11:51 PM
Sep 20
76 °FPassing clouds.3 mph67%29.88 "Hg10 mi
10:51 PM76 °FPassing clouds.7 mph69%29.87 "Hg10 mi
9:51 PM77 °FPassing clouds.6 mph64%29.85 "Hg10 mi
8:51 PM79 °FPassing clouds.8 mph58%29.83 "Hg10 mi
7:51 PM80 °FPassing clouds.10 mph56%29.82 "Hg10 mi
Weather by CustomWeather, © 2014

See weather overviewHow to use our weather pages